Welcome to the New NWS' Forecast!
Most changes are behind the scenes, but click here for differences you might notice.

Regional Weather Roundup (RWR)

Issued by National Weather Service (NWS)

                            
618 
ASUS44 KOUN 150500
RWROK 

WEATHER ROUNDUP FOR OKLAHOMA
NATIONAL WEATHER SERVICE NORMAN OK
1200 AM CDT WED AUG 15 2018

NOTE: "FAIR" INDICATES FEW OR NO CLOUDS BELOW 12,000 FEET WITH NO
      SIGNIFICANT WEATHER AND/OR OBSTRUCTIONS TO VISIBILITY.

OKZ001>007-009>012-014-015-017-150600-
NORTHWEST OKLAHOMA AND THE PANHANDLE
  
CITY           SKY/WX    TMP DP  RH WIND       PRES   REMARKS
GAGE           MOCLDY    73  67  81 NE7       29.96S                  
GUYMON         CLEAR     70  61  73 NE9       30.03S                  
$$

OKZ016-021>023-033>039-044-045-150600-
SOUTHWEST OKLAHOMA
  
CITY           SKY/WX    TMP DP  RH WIND       PRES   REMARKS
LAWTON/REGL    CLOUDY    80  69  69 SE10      29.90F                  
LAWTON/FT SILL DRIZZLE   79  70  74 SE14      29.89F                  
FREDERICK      PTCLDY    79  69  71 SE12      29.87R                  
CLINTON        CLOUDY    70  68  93 S15       29.96S THUNDER          
HOBART         TSTM      75  68  78 SW16G29   29.99R VSB 3/4          
ALTUS AFB      TSTM      79  71  75 SE8       29.90R                  
$$

OKZ018>020-024>031-150600-
CENTRAL OKLAHOMA
  
CITY           SKY/WX    TMP DP  RH WIND       PRES   REMARKS
OKLAHOMA CITY  CLOUDY    69  66  90 S7        29.89F                  
OKC/WILEY POST CLOUDY    71  67  87 S10       29.88F                  
OKC/TINKER AFB CLOUDY    70  67  90 S13       29.88F                  
STILLWATER     LGT RAIN  71  68  90 W10G20    29.91F                  
GUTHRIE        TSTM      70  67  90 NW9       29.92R                  
$$

OKZ008-013-054>072-150600-
NORTHEAST OKLAHOMA
  
CITY           SKY/WX    TMP DP  RH WIND       PRES   REMARKS
TULSA          CLOUDY    77  72  84 S14       29.86F                  
TULSA/JONES    CLOUDY    76  72  87 S3        29.87F                  
PONCA CITY     CLOUDY    73  67  81 SW7       29.90R                  
BARTLESVILLE   CLOUDY    74  73  97 CALM      29.90R                  
MUSKOGEE       CLOUDY    73  73 100 S7        29.90F                  
$$

OKZ032-040>043-046>053-073>077-150600-
SOUTH CENTRAL/SOUTHEAST OKLAHOMA
  
CITY           SKY/WX    TMP DP  RH WIND       PRES   REMARKS
MCALESTER      CLOUDY    74  73  97 S3        29.91F                  
$$